Location: Peebles
(55.6412°N, 3.1714°W)
Time: 14:11:17
(UTC+01:00)

Cosmos 1908 Rocket - Pass Details

Date: 26 September 2021
Orbit: 605 x 633 km, 82.5° (Epoch: 17 October)

Event Time Altitude Azimuth Distance (km) Brightness Sun altitude
Rises 19:35:36 0° 173° (S) 2,918 6.9 -5.8°
Reaches altitude 10° 19:37:53 10° 167° (SSE) 2,013 6.0 -6.1°
Maximum altitude 19:42:10 47° 94° (E) 844 3.9 -6.7°
Drops below altitude 10° 19:46:27 10° 21° (NNE) 2,019 6.1 -7.3°
Sets 19:48:45 0° 16° (NNE) 2,927 6.9 -7.6°
